OVO375B ZPPP-ZGHA

Flight info

Callsign OVO375B
Flight time 1h 30m
Altitude 41100
Route NODIB1Y NODIB W137 LPS A581 NOMUK W194 LLC W138 RUKLI RUK1W
Aircraft A359/H-SDE2E3GHIJ3J4J5LM1ORWXY/LB1D1

Departure

Time 2026-05-04 12:20
Airport Kunming Changshui International Airport (ZPPP)

Arrival

Time 2026-05-04 13:50
Airport Changsha Huanghua International Airport (ZGHA)
Time Latitude Longitude Altitude Speed Heading
2026-05-04 11:28 25.11086 102.93378 6899 ft 0 kts 223°
2026-05-04 11:40 25.11126 102.93420 6900 ft 4 kts 215°
2026-05-04 11:41 25.11149 102.93427 6899 ft 4 kts 174°
2026-05-04 11:41 25.11165 102.93427 6899 ft 0 kts 191°
2026-05-04 11:45 25.11141 102.93430 6899 ft 12 kts 134°
2026-05-04 11:46 25.11097 102.93499 6899 ft 16 kts 158°
2026-05-04 11:46 25.11019 102.93462 6900 ft 16 kts 221°
2026-05-04 11:46 25.10949 102.93400 6900 ft 16 kts 220°
2026-05-04 11:46 25.10893 102.93349 6900 ft 12 kts 218°
2026-05-04 11:47 25.10839 102.93303 6900 ft 9 kts 220°
2026-05-04 11:47 25.10775 102.93245 6900 ft 16 kts 218°
2026-05-04 11:47 25.10707 102.93188 6900 ft 10 kts 217°
2026-05-04 11:47 25.10642 102.93140 6900 ft 11 kts 197°
2026-05-04 11:48 25.10579 102.93152 6900 ft 11 kts 158°
2026-05-04 11:48 25.10526 102.93193 6901 ft 11 kts 135°
2026-05-04 11:48 25.10472 102.93216 6900 ft 4 kts 186°
2026-05-04 11:48 25.10430 102.93210 6901 ft 7 kts 187°
2026-05-04 11:49 25.10386 102.93204 6900 ft 7 kts 187°
2026-05-04 11:49 25.10375 102.93202 6919 ft 0 kts 187°
2026-05-04 11:50 25.10382 102.93203 6902 ft 2 kts 187°
2026-05-04 11:50 25.10398 102.93206 6901 ft 2 kts 187°
2026-05-04 11:50 25.10403 102.93206 6901 ft 0 kts 187°
2026-05-04 12:07 25.10415 102.93208 6900 ft 4 kts 187°
2026-05-04 12:08 25.10442 102.93212 6901 ft 4 kts 188°
2026-05-04 12:08 25.10469 102.93216 6901 ft 4 kts 188°
2026-05-04 12:08 25.10495 102.93221 6900 ft 4 kts 189°
2026-05-04 12:08 25.10522 102.93225 6900 ft 4 kts 188°
2026-05-04 12:09 25.10549 102.93229 6900 ft 4 kts 184°
2026-05-04 12:09 25.10576 102.93229 6900 ft 4 kts 163°
2026-05-04 12:09 25.10589 102.93222 6900 ft 0 kts 130°
2026-05-04 12:12 25.10589 102.93223 6900 ft 1 kts 130°
2026-05-04 12:12 25.10570 102.93248 6900 ft 8 kts 130°
2026-05-04 12:12 25.10522 102.93319 6900 ft 13 kts 115°
2026-05-04 12:13 25.10537 102.93375 6900 ft 12 kts 50°
2026-05-04 12:14 25.11124 102.93116 6900 ft 22 kts 308°
2026-05-04 12:15 25.11218 102.92985 6900 ft 22 kts 313°
2026-05-04 12:15 25.11322 102.92902 6900 ft 17 kts
2026-05-04 12:15 25.11420 102.92982 6900 ft 20 kts 40°
2026-05-04 12:15 25.11562 102.93104 6900 ft 30 kts 37°
2026-05-04 12:16 25.11730 102.93247 6899 ft 30 kts 38°
2026-05-04 12:16 25.11885 102.93381 6898 ft 28 kts 37°
2026-05-04 12:16 25.12038 102.93512 6898 ft 28 kts 38°
2026-05-04 12:16 25.12188 102.93648 6898 ft 28 kts 40°
2026-05-04 12:17 25.12338 102.93780 6897 ft 28 kts 38°
2026-05-04 12:17 25.12489 102.93914 6897 ft 28 kts 38°
2026-05-04 12:17 25.12641 102.94045 6896 ft 28 kts 37°
2026-05-04 12:17 25.12795 102.94176 6896 ft 28 kts 41°
2026-05-04 12:18 25.12918 102.94269 6895 ft 14 kts 11°
2026-05-04 12:18 25.12997 102.94221 6894 ft 14 kts 310°
2026-05-04 12:18 25.13032 102.94142 6893 ft 8 kts 249°
2026-05-04 12:18 25.12994 102.94101 6893 ft 8 kts 218°
2026-05-04 12:19 25.12872 102.93995 6894 ft 51 kts 218°
2026-05-04 12:19 25.12430 102.93612 6899 ft 109 kts 218°
2026-05-04 12:19 25.11692 102.92972 6900 ft 159 kts 218°
2026-05-04 12:19 25.10771 102.92169 7339 ft 168 kts 219°
2026-05-04 12:20 25.09951 102.91276 8131 ft 165 kts 233°
2026-05-04 12:20 25.09247 102.90243 8636 ft 175 kts 236°
2026-05-04 12:20 25.08472 102.89092 8954 ft 199 kts 236°
2026-05-04 12:20 25.07903 102.88254 9143 ft 214 kts 235°
2026-05-04 12:21 25.06958 102.86861 9437 ft 238 kts 235°
2026-05-04 12:21 25.05932 102.85350 9932 ft 253 kts 234°
2026-05-04 12:21 25.04863 102.83776 10656 ft 259 kts 236°
2026-05-04 12:21 25.03776 102.82177 11431 ft 262 kts 236°
2026-05-04 12:22 25.02677 102.80563 12246 ft 264 kts 236°
2026-05-04 12:22 25.01570 102.78934 13089 ft 267 kts 237°
2026-05-04 12:22 25.00396 102.77330 13921 ft 272 kts 230°
2026-05-04 12:22 24.98825 102.76108 14604 ft 286 kts 207°
2026-05-04 12:23 24.96834 102.75713 15305 ft 300 kts 181°
2026-05-04 12:23 24.94804 102.76376 16022 ft 314 kts 153°
2026-05-04 12:23 24.93204 102.78046 16716 ft 324 kts 127°
2026-05-04 12:23 24.91974 102.80153 17388 ft 330 kts 123°
2026-05-04 12:24 24.90785 102.82337 18040 ft 335 kts 123°
2026-05-04 12:24 24.89571 102.84551 18688 ft 340 kts 124°
2026-05-04 12:24 24.88331 102.86785 19263 ft 344 kts 124°
2026-05-04 12:24 24.87068 102.89042 19823 ft 348 kts 124°
2026-05-04 12:25 24.85787 102.91318 20400 ft 351 kts 124°
2026-05-04 12:25 24.84517 102.93665 20753 ft 364 kts 120°
2026-05-04 12:25 24.83528 102.96290 20987 ft 379 kts 107°
2026-05-04 12:25 24.83081 102.99177 21169 ft 388 kts 92°
2026-05-04 12:26 24.83266 103.02156 21350 ft 395 kts 77°
2026-05-04 12:26 24.84091 103.05045 21473 ft 398 kts 62°
2026-05-04 12:26 24.85528 103.07655 21625 ft 400 kts 47°
2026-05-04 12:26 24.87487 103.09823 21749 ft 401 kts 33°
2026-05-04 12:27 24.89748 103.11642 21893 ft 405 kts 29°
2026-05-04 12:27 24.92095 103.13414 21998 ft 413 kts 29°
2026-05-04 12:27 24.94484 103.15218 22151 ft 420 kts 30°
2026-05-04 12:27 24.96905 103.17059 22282 ft 426 kts 30°
2026-05-04 12:28 24.99354 103.18941 22416 ft 433 kts 31°
2026-05-04 12:28 25.01690 103.21101 22551 ft 443 kts 38°
2026-05-04 12:28 25.03949 103.23447 22665 ft 449 kts 39°
2026-05-04 12:28 25.06211 103.25856 22849 ft 454 kts 40°
2026-05-04 12:29 25.08477 103.28295 23060 ft 457 kts 40°
2026-05-04 12:29 25.10752 103.30755 23296 ft 459 kts 40°
2026-05-04 12:29 25.13034 103.33227 23530 ft 461 kts 40°
2026-05-04 12:29 25.15322 103.35711 23750 ft 463 kts 41°
2026-05-04 12:30 25.17621 103.38212 23949 ft 465 kts 41°
2026-05-04 12:30 25.19927 103.40719 24147 ft 466 kts 40°
2026-05-04 12:30 25.22242 103.43239 24323 ft 468 kts 40°
2026-05-04 12:30 25.24561 103.45764 24527 ft 470 kts 40°
2026-05-04 12:31 25.26897 103.48311 24730 ft 472 kts 40°
2026-05-04 12:31 25.29236 103.50862 24895 ft 474 kts 40°
2026-05-04 12:31 25.31592 103.53430 25031 ft 477 kts 40°
2026-05-04 12:31 25.33922 103.55975 25314 ft 477 kts 40°
2026-05-04 12:32 25.36280 103.58554 25553 ft 478 kts 40°
2026-05-04 12:32 25.41025 103.63743 25941 ft 482 kts 40°
2026-05-04 12:32 25.43411 103.66354 26149 ft 483 kts 40°
2026-05-04 12:33 25.45804 103.68976 26344 ft 485 kts 40°
2026-05-04 12:33 25.48204 103.71607 26527 ft 487 kts 40°
2026-05-04 12:33 25.50615 103.74250 26705 ft 489 kts 39°
2026-05-04 12:33 25.53035 103.76906 26921 ft 490 kts 39°
2026-05-04 12:34 25.55461 103.79568 27122 ft 492 kts 39°
2026-05-04 12:34 25.57893 103.82240 27336 ft 494 kts 39°
2026-05-04 12:34 25.60336 103.84925 27556 ft 496 kts 39°
2026-05-04 12:34 25.62789 103.87622 27768 ft 498 kts 39°
2026-05-04 12:35 25.65250 103.90331 27971 ft 500 kts 39°
2026-05-04 12:35 25.67717 103.93048 28193 ft 501 kts 39°
2026-05-04 12:35 25.70194 103.95778 28386 ft 503 kts 39°
2026-05-04 12:35 25.72682 103.98521 28606 ft 505 kts 39°
2026-05-04 12:36 25.75178 104.01273 28825 ft 507 kts 39°
2026-05-04 12:36 25.77684 104.04037 29056 ft 509 kts 39°
2026-05-04 12:36 25.80048 104.06998 29243 ft 518 kts 48°
2026-05-04 12:36 25.82158 104.10250 29451 ft 522 kts 50°
2026-05-04 12:37 25.84183 104.13610 29679 ft 525 kts 52°
2026-05-04 12:37 25.86166 104.17019 29899 ft 527 kts 52°
2026-05-04 12:37 25.88143 104.20460 30168 ft 529 kts 52°
2026-05-04 12:37 25.90124 104.23906 30391 ft 530 kts 52°
2026-05-04 12:38 25.92117 104.27355 30628 ft 531 kts 52°
2026-05-04 12:38 25.94122 104.30806 30840 ft 533 kts 52°
2026-05-04 12:38 25.96153 104.34286 31059 ft 534 kts 52°
2026-05-04 12:38 25.98179 104.37751 31265 ft 536 kts 52°
2026-05-04 12:39 26.00214 104.41232 31446 ft 537 kts 52°
2026-05-04 12:39 26.02416 104.44566 31641 ft 533 kts 44°
2026-05-04 12:39 26.04989 104.47492 31776 ft 527 kts 36°
2026-05-04 12:39 26.07716 104.50209 31930 ft 526 kts 34°
2026-05-04 12:40 26.10501 104.52851 32112 ft 526 kts 33°
2026-05-04 12:40 26.13319 104.55457 32323 ft 527 kts 33°
2026-05-04 12:40 26.16151 104.58051 32510 ft 528 kts 33°
2026-05-04 12:40 26.18991 104.60654 32695 ft 529 kts 33°
2026-05-04 12:41 26.21797 104.63223 32876 ft 530 kts 32°
2026-05-04 12:41 26.24639 104.65841 33099 ft 530 kts 33°
2026-05-04 12:41 26.27475 104.68476 33330 ft 530 kts 33°
2026-05-04 12:41 26.30303 104.71116 33546 ft 530 kts 33°
2026-05-04 12:42 26.33122 104.73754 33828 ft 529 kts 33°
2026-05-04 12:42 26.35938 104.76387 34049 ft 528 kts 33°
2026-05-04 12:42 26.38758 104.79023 34263 ft 528 kts 33°
2026-05-04 12:42 26.41571 104.81655 34511 ft 528 kts 33°
2026-05-04 12:43 26.44383 104.84283 34779 ft 527 kts 32°
2026-05-04 12:43 26.47196 104.86912 35051 ft 526 kts 32°
2026-05-04 12:43 26.49995 104.89533 35315 ft 525 kts 33°
2026-05-04 12:43 26.52789 104.92152 35586 ft 524 kts 32°
2026-05-04 12:44 26.55580 104.94770 35867 ft 523 kts 32°
2026-05-04 12:44 26.58363 104.97383 36161 ft 522 kts 32°
2026-05-04 12:44 26.61074 105.00008 36394 ft 526 kts 36°
2026-05-04 12:44 26.63562 105.03045 36650 ft 535 kts 45°
2026-05-04 12:45 26.65635 105.06546 36929 ft 544 kts 56°
2026-05-04 12:45 26.67360 105.10323 37159 ft 547 kts 58°
2026-05-04 12:45 26.68978 105.14185 37311 ft 550 kts 59°
2026-05-04 12:45 26.70539 105.18091 37495 ft 550 kts 60°
2026-05-04 12:46 26.72080 105.22007 37751 ft 550 kts 60°
2026-05-04 12:46 26.73609 105.25913 38063 ft 548 kts 60°
2026-05-04 12:46 26.75144 105.29807 38307 ft 547 kts 60°
2026-05-04 12:46 26.76685 105.33695 38525 ft 546 kts 60°
2026-05-04 12:47 26.78229 105.37575 38747 ft 546 kts 60°
2026-05-04 12:47 26.79776 105.41456 38932 ft 546 kts 60°
2026-05-04 12:47 26.81324 105.45333 39091 ft 546 kts 60°
2026-05-04 12:47 26.82871 105.49210 39302 ft 545 kts 60°
2026-05-04 12:48 26.84415 105.53082 39498 ft 544 kts 60°
2026-05-04 12:48 26.85956 105.56953 39693 ft 544 kts 60°
2026-05-04 12:48 26.87493 105.60819 39881 ft 544 kts 60°
2026-05-04 12:48 26.89028 105.64684 40059 ft 542 kts 60°
2026-05-04 12:49 26.90559 105.68546 40209 ft 544 kts 60°
2026-05-04 12:49 26.93637 105.76304 40488 ft 544 kts 60°
2026-05-04 12:49 26.95173 105.80183 40638 ft 544 kts 60°
2026-05-04 12:50 26.96704 105.84055 40798 ft 543 kts 60°
2026-05-04 12:50 26.98214 105.87878 40942 ft 543 kts 60°
2026-05-04 12:50 26.99743 105.91750 41052 ft 543 kts 60°
2026-05-04 12:51 27.02794 105.99495 41099 ft 543 kts 60°
2026-05-04 12:51 27.05907 106.07199 41099 ft 541 kts 58°
2026-05-04 12:52 27.09360 106.14676 41104 ft 539 kts 56°
2026-05-04 12:52 27.12866 106.22115 41100 ft 539 kts 56°
2026-05-04 12:53 27.16325 106.29599 41106 ft 541 kts 57°
2026-05-04 12:53 27.19750 106.37120 41104 ft 541 kts 57°
2026-05-04 12:54 27.23168 106.44655 41096 ft 541 kts 57°
2026-05-04 12:54 27.26591 106.52187 41104 ft 541 kts 57°
2026-05-04 12:55 27.30010 106.59744 41102 ft 542 kts 57°
2026-05-04 12:55 27.33403 106.67254 41096 ft 542 kts 57°
2026-05-04 12:56 27.36809 106.74802 41100 ft 541 kts 57°
2026-05-04 12:56 27.40203 106.82367 41092 ft 542 kts 57°
2026-05-04 12:57 27.43599 106.89962 41091 ft 543 kts 57°
2026-05-04 12:57 27.46987 106.97554 41088 ft 542 kts 57°
2026-05-04 12:58 27.50381 107.05129 41088 ft 542 kts 57°
2026-05-04 12:58 27.53813 107.12694 41084 ft 543 kts 57°
2026-05-04 12:59 27.57248 107.20277 41090 ft 543 kts 57°
2026-05-04 12:59 27.60670 107.27877 41075 ft 544 kts 57°
2026-05-04 13:00 27.64095 107.35489 41076 ft 544 kts 57°
2026-05-04 13:00 27.67523 107.43105 41079 ft 545 kts 57°
2026-05-04 13:01 27.70947 107.50734 41075 ft 545 kts 57°
2026-05-04 13:01 27.74365 107.58370 41070 ft 545 kts 57°
2026-05-04 13:02 27.77777 107.66007 41063 ft 545 kts 57°
2026-05-04 13:02 27.81167 107.73606 41064 ft 545 kts 57°
2026-05-04 13:03 27.84590 107.81259 41056 ft 546 kts 57°
2026-05-04 13:03 27.88102 107.88934 41056 ft 546 kts 56°
2026-05-04 13:04 27.91600 107.96553 41062 ft 546 kts 56°
2026-05-04 13:04 27.95091 108.04193 41054 ft 547 kts 56°
2026-05-04 13:05 27.98540 108.11793 41048 ft 547 kts 57°
2026-05-04 13:05 28.02011 108.19450 41092 ft 546 kts 56°
2026-05-04 13:06 28.05471 108.27088 41046 ft 545 kts 56°
2026-05-04 13:06 28.08829 108.34516 41059 ft 545 kts 56°
2026-05-04 13:07 28.12279 108.42159 41038 ft 545 kts 56°
2026-05-04 13:07 28.15735 108.49828 41051 ft 546 kts 56°
2026-05-04 13:08 28.19186 108.57507 41050 ft 547 kts 56°
2026-05-04 13:08 28.22631 108.65189 41041 ft 547 kts 57°
2026-05-04 13:09 28.26075 108.72883 41058 ft 547 kts 56°
2026-05-04 13:09 28.28937 108.79284 41054 ft 547 kts 56°
2026-05-04 13:10 28.32377 108.86991 41047 ft 548 kts 56°
2026-05-04 13:10 28.35815 108.94706 41048 ft 548 kts 57°
2026-05-04 13:11 28.39250 109.02435 41045 ft 548 kts 57°
2026-05-04 13:11 28.42678 109.10166 41043 ft 548 kts 57°
2026-05-04 13:12 28.46104 109.17912 41049 ft 549 kts 57°
2026-05-04 13:12 28.49523 109.25671 41030 ft 549 kts 57°
2026-05-04 13:13 28.52936 109.33432 41041 ft 549 kts 57°
2026-05-04 13:13 28.56345 109.41200 41032 ft 549 kts 57°
2026-05-04 13:14 28.59439 109.49188 41043 ft 554 kts 62°
2026-05-04 13:14 28.62275 109.57354 41042 ft 555 kts 63°
2026-05-04 13:15 28.65050 109.65512 41054 ft 556 kts 63°
2026-05-04 13:15 28.67897 109.73684 41033 ft 555 kts 62°
2026-05-04 13:16 28.70836 109.81811 41036 ft 555 kts 62°
2026-05-04 13:16 28.73528 109.89256 41035 ft 556 kts 62°
2026-05-04 13:17 28.76451 109.97408 41036 ft 557 kts 62°
2026-05-04 13:17 28.79362 110.05576 41036 ft 556 kts 62°
2026-05-04 13:18 28.82263 110.13751 41038 ft 556 kts 62°
2026-05-04 13:18 28.85164 110.21932 41045 ft 557 kts 62°
2026-05-04 13:19 28.88068 110.30137 41037 ft 558 kts 62°
2026-05-04 13:19 28.90966 110.38346 41032 ft 557 kts 62°
2026-05-04 13:20 28.93525 110.46717 41033 ft 565 kts 73°
2026-05-04 13:20 28.94058 110.51179 41025 ft 571 kts 85°
2026-05-04 13:20 28.93870 110.55711 41028 ft 574 kts 98°
2026-05-04 13:21 28.91568 110.64427 41030 ft 574 kts 114°
2026-05-04 13:21 28.88258 110.72712 41025 ft 574 kts 117°
2026-05-04 13:22 28.84809 110.80925 41024 ft 575 kts 117°
2026-05-04 13:22 28.81438 110.89198 41024 ft 575 kts 116°
2026-05-04 13:23 28.78151 110.97443 41019 ft 575 kts 116°
2026-05-04 13:23 28.74853 111.05744 41019 ft 575 kts 116°
2026-05-04 13:24 28.71545 111.14043 41039 ft 575 kts 116°
2026-05-04 13:24 28.68225 111.22340 41001 ft 576 kts 117°
2026-05-04 13:25 28.64894 111.30640 40898 ft 577 kts 117°
2026-05-04 13:25 28.63228 111.34788 40663 ft 576 kts 117°
2026-05-04 13:25 28.61561 111.38932 40431 ft 577 kts 117°
2026-05-04 13:25 28.59890 111.43085 40196 ft 578 kts 117°
2026-05-04 13:26 28.58207 111.47242 39955 ft 579 kts 117°
2026-05-04 13:26 28.56523 111.51400 39616 ft 578 kts 117°
2026-05-04 13:26 28.54842 111.55559 38884 ft 580 kts 117°
2026-05-04 13:26 28.53153 111.59746 37972 ft 585 kts 117°
2026-05-04 13:27 28.51454 111.63950 37130 ft 587 kts 117°
2026-05-04 13:27 28.49743 111.68177 36323 ft 588 kts 118°
2026-05-04 13:27 28.48033 111.72400 35547 ft 588 kts 118°
2026-05-04 13:27 28.46319 111.76623 34777 ft 589 kts 118°
2026-05-04 13:28 28.44603 111.80847 34004 ft 589 kts 118°
2026-05-04 13:28 28.42884 111.85070 33094 ft 589 kts 119°
2026-05-04 13:28 28.41162 111.89293 32189 ft 589 kts 119°
2026-05-04 13:28 28.39395 111.93480 31273 ft 586 kts 124°
2026-05-04 13:29 28.37081 111.97206 30398 ft 571 kts 139°
2026-05-04 13:29 28.34197 112.00200 29488 ft 555 kts 150°
2026-05-04 13:29 28.31134 112.02784 28448 ft 540 kts 153°
2026-05-04 13:29 28.28070 112.05157 27053 ft 528 kts 154°
2026-05-04 13:30 28.25040 112.07397 26295 ft 514 kts 155°
2026-05-04 13:30 28.22054 112.09565 25724 ft 506 kts 155°
2026-05-04 13:30 28.19105 112.11707 25128 ft 501 kts 153°
2026-05-04 13:30 28.16230 112.13823 24516 ft 497 kts 153°
2026-05-04 13:31 28.13352 112.15958 23920 ft 492 kts 153°
2026-05-04 13:31 28.10511 112.18076 23276 ft 487 kts 153°
2026-05-04 13:31 28.07806 112.20379 22600 ft 488 kts 142°
2026-05-04 13:31 28.05559 112.23265 21960 ft 489 kts 130°
2026-05-04 13:32 28.03613 112.26402 21298 ft 485 kts 127°
2026-05-04 13:32 28.01746 112.29555 20662 ft 479 kts 127°
2026-05-04 13:32 27.99952 112.32708 20029 ft 475 kts 122°
2026-05-04 13:32 27.98704 112.36149 19400 ft 473 kts 105°
2026-05-04 13:33 27.98236 112.39812 18776 ft 469 kts 95°
2026-05-04 13:33 27.98034 112.43469 18137 ft 463 kts 93°
2026-05-04 13:33 27.97852 112.47083 17459 ft 457 kts 94°
2026-05-04 13:33 27.97659 112.50640 16819 ft 450 kts 94°
2026-05-04 13:34 27.97457 112.54142 16198 ft 442 kts 94°
2026-05-04 13:34 27.97251 112.57584 15577 ft 435 kts 94°
2026-05-04 13:34 27.97044 112.60976 14959 ft 428 kts 94°
2026-05-04 13:34 27.96839 112.64312 14361 ft 421 kts 94°
2026-05-04 13:35 27.96633 112.67591 13750 ft 415 kts 94°
2026-05-04 13:35 27.96226 112.73983 12505 ft 400 kts 94°
2026-05-04 13:35 27.96028 112.77089 11898 ft 393 kts 94°
2026-05-04 13:36 27.95833 112.80149 11299 ft 387 kts 94°
2026-05-04 13:36 27.95641 112.83135 11021 ft 372 kts 94°
2026-05-04 13:36 27.95469 112.85950 10889 ft 355 kts 92°
2026-05-04 13:36 27.95679 112.88646 10747 ft 337 kts 74°
2026-05-04 13:37 27.96671 112.90955 10634 ft 320 kts 51°
2026-05-04 13:37 27.98263 112.92599 10490 ft 304 kts 31°
2026-05-04 13:37 28.00062 112.93744 10379 ft 290 kts 26°
2026-05-04 13:37 28.01258 112.94435 10297 ft 282 kts 26°
2026-05-04 13:38 28.03532 112.95740 10027 ft 273 kts 26°
2026-05-04 13:38 28.05235 112.96724 9758 ft 282 kts 26°
2026-05-04 13:38 28.07013 112.97757 9664 ft 291 kts 26°
2026-05-04 13:38 28.08804 112.98793 9344 ft 287 kts 25°
2026-05-04 13:39 28.10649 112.99616 8897 ft 286 kts 18°
2026-05-04 13:39 28.12538 113.00336 8465 ft 286 kts 17°
2026-05-04 13:39 28.14428 113.01028 8131 ft 285 kts 17°
2026-05-04 13:39 28.16311 113.01705 7801 ft 283 kts 17°
2026-05-04 13:40 28.18181 113.02371 7481 ft 281 kts 17°
2026-05-04 13:40 28.20044 113.03032 7167 ft 279 kts 16°
2026-05-04 13:40 28.21892 113.03686 6846 ft 278 kts 16°
2026-05-04 13:40 28.23730 113.04336 6530 ft 276 kts 16°
2026-05-04 13:41 28.25560 113.04982 6197 ft 275 kts 16°
2026-05-04 13:41 28.27384 113.05626 5882 ft 275 kts 17°
2026-05-04 13:41 28.29210 113.06270 5560 ft 275 kts 17°
2026-05-04 13:42 28.32831 113.07549 5081 ft 264 kts 17°
2026-05-04 13:42 28.34546 113.08156 4949 ft 253 kts 18°
2026-05-04 13:42 28.36188 113.08737 4820 ft 242 kts 17°
2026-05-04 13:42 28.37759 113.09294 4683 ft 232 kts 18°
2026-05-04 13:43 28.39161 113.10074 4530 ft 220 kts 42°
2026-05-04 13:43 28.39911 113.11518 4449 ft 213 kts 81°
2026-05-04 13:43 28.40082 113.13176 4329 ft 212 kts 89°
2026-05-04 13:43 28.40144 113.14808 4221 ft 201 kts 90°
2026-05-04 13:44 28.40200 113.16378 4144 ft 198 kts 90°
2026-05-04 13:44 28.40262 113.17942 4093 ft 198 kts 90°
2026-05-04 13:44 28.40265 113.19473 4003 ft 188 kts 100°
2026-05-04 13:44 28.39705 113.20718 3784 ft 175 kts 141°
2026-05-04 13:45 28.38611 113.21200 3578 ft 168 kts 172°
2026-05-04 13:45 28.37466 113.21294 3376 ft 164 kts 176°
2026-05-04 13:45 28.36279 113.21343 3319 ft 171 kts 176°
2026-05-04 13:45 28.35118 113.21395 3094 ft 164 kts 176°
2026-05-04 13:46 28.33994 113.21454 2904 ft 161 kts 175°
2026-05-04 13:46 28.32895 113.21523 2684 ft 161 kts 175°
2026-05-04 13:46 28.31772 113.21589 2468 ft 162 kts 175°
2026-05-04 13:46 28.30642 113.21658 2263 ft 163 kts 175°
2026-05-04 13:47 28.29515 113.21727 2033 ft 162 kts 175°
2026-05-04 13:47 28.28388 113.21797 1814 ft 162 kts 175°
2026-05-04 13:47 28.27299 113.21863 1593 ft 152 kts 175°
2026-05-04 13:47 28.26272 113.21928 1368 ft 144 kts 175°
2026-05-04 13:48 28.25300 113.21986 1157 ft 137 kts 175°
2026-05-04 13:48 28.24355 113.22043 985 ft 137 kts 175°
2026-05-04 13:48 28.23402 113.22102 793 ft 138 kts 176°
2026-05-04 13:48 28.22445 113.22156 597 ft 138 kts 177°
2026-05-04 13:49 28.21488 113.22214 397 ft 138 kts 176°
2026-05-04 13:49 28.20527 113.22267 232 ft 138 kts 177°
2026-05-04 13:49 28.19709 113.22315 227 ft 92 kts 177°
2026-05-04 13:49 28.19242 113.22343 221 ft 50 kts 177°
2026-05-04 13:50 28.18937 113.22347 223 ft 33 kts 189°
2026-05-04 13:50 28.18723 113.22262 228 ft 33 kts 203°
2026-05-04 13:50 28.18545 113.22195 228 ft 21 kts 182°
2026-05-04 13:50 28.18395 113.22201 224 ft 23 kts 177°
2026-05-04 13:51 28.18231 113.22213 224 ft 25 kts 174°
2026-05-04 13:51 28.18073 113.22200 223 ft 18 kts 223°
2026-05-04 13:51 28.18063 113.22117 229 ft 14 kts 274°
2026-05-04 13:51 28.18088 113.21974 222 ft 21 kts 277°
2026-05-04 13:52 28.18198 113.21834 223 ft 14 kts 356°
2026-05-04 13:52 28.18303 113.21828 229 ft 17 kts 357°
2026-05-04 13:52 28.18428 113.21820 223 ft 19 kts 357°
2026-05-04 13:53 28.18571 113.21812 224 ft 22 kts 357°
2026-05-04 13:53 28.18728 113.21802 222 ft 24 kts 357°
2026-05-04 13:53 28.18900 113.21790 222 ft 26 kts 356°
2026-05-04 13:54 28.19269 113.21766 223 ft 25 kts 357°
2026-05-04 13:54 28.19392 113.21728 227 ft 15 kts 296°
2026-05-04 13:54 28.19342 113.21561 222 ft 5 kts 240°
2026-05-04 13:55 28.19339 113.21555 221 ft 0 kts 240°